Location: Colebrook
(42.0017°N, 73.0973°W)
Time: 06:59:22
(UTC-04:00)

N. Korean satellite - Visible Passes

Search period start: 28 September 2021 00:00
Search period end: 08 October 2021 00:00
Orbit: 449 x 498 km, 97.3° (Epoch: 27 September)

Date Brightness Start Highest point End Pass type
(mag) Time Alt. Az. Time Alt. Az. Time Alt. Az.
28 Sep 7.3 05:59:23 10° NNE 06:02:55 59° E 06:06:29 10° S visible
29 Sep 9.0 05:31:59 10° NE 05:35:01 25° E 05:38:04 10° SSE visible
30 Sep 10.0 05:05:35 10° ENE 05:07:00 12° E 05:08:25 10° ESE visible
01 Oct 6.7 06:09:01 10° NNE 06:12:38 81° ESE 06:16:16 10° S visible
02 Oct 8.5 05:41:25 10° NNE 05:44:44 33° E 05:48:03 10° SSE visible
03 Oct 9.8 05:14:26 10° NE 05:16:42 16° E 05:18:58 10° SE visible
04 Oct 6.5 06:18:35 10° N 06:22:13 75° WNW 06:25:51 10° SSW visible
05 Oct 7.8 05:50:48 10° NNE 05:54:19 45° E 05:57:49 10° S visible
06 Oct 9.4 05:23:30 10° NE 05:26:17 20° E 05:29:04 10° SE visible
